This is the latest recevied weather packets stored in our database for station/object XW7RMR. If no packets are shown the sender has not sent any weather packets the latest 10 day(s).
| Time | Temp. | Humidity | Pressure | Rain* | Wind** | Luminosity | Snow |
|---|---|---|---|---|---|---|---|
| 1777060003 | 17.78° C | 31% | 1015.5 hPa | 0 mm | - | 804 W/m² | - |
| 1777059698 | 17.78° C | 29% | 1015.7 hPa | 0 mm | - | 801 W/m² | - |
| 1777059396 | 17.22° C | 28% | 1015.6 hPa | 0 mm | - | 798 W/m² | - |
| 1777059091 | 17.22° C | 27% | 1015.6 hPa | 0 mm | - | 794 W/m² | - |
| 1777058786 | 17.78° C | 31% | 1015.8 hPa | 0 mm | - | 790 W/m² | - |
| 1777058482 | 17.22° C | 28% | 1015.8 hPa | 0 mm | - | 783 W/m² | - |
| 1777058180 | 16.67° C | 30% | 1016 hPa | 0 mm | - | 779 W/m² | - |
| 1777057874 | 17.78° C | 29% | 1016 hPa | 0 mm | - | 773 W/m² | - |
| 1777057570 | 17.22° C | 28% | 1016.2 hPa | 0 mm | - | 762 W/m² | - |
| 1777057266 | 17.22° C | 28% | 1016.2 hPa | 0 mm | - | 762 W/m² | - |
| 1777056961 | 17.22° C | 32% | 1016.2 hPa | 0 mm | - | 758 W/m² | - |
| 1777056660 | 17.22° C | 37% | 1016.3 hPa | 0 mm | - | 746 W/m² | - |
| 1777056356 | 16.67° C | 43% | 1016.2 hPa | 0 mm | - | 740 W/m² | - |
| 1777056053 | 16.67° C | 43% | 1016.2 hPa | 0 mm | - | 730 W/m² | - |
| 1777055749 | 16.11° C | 45% | 1016.3 hPa | 0 mm | - | 724 W/m² | - |
| 1777055445 | 16.11° C | 46% | 1016.4 hPa | 0 mm | - | 715 W/m² | - |
| 1777055145 | 15.56° C | 47% | 1016.8 hPa | 0 mm | - | 704 W/m² | - |
| 1777054839 | 16.11° C | 45% | 1016.6 hPa | 0 mm | - | 697 W/m² | - |
| 1777054537 | 15.56° C | 46% | 1016.7 hPa | 0 mm | - | 688 W/m² | - |
| 1777054234 | 15.56° C | 52% | 1016.6 hPa | 0 mm | - | 676 W/m² | - |
| 1777053932 | 15.56° C | 52% | 1016.9 hPa | 0 mm | - | 664 W/m² | - |
| 1777053628 | 15° C | 54% | 1016.7 hPa | 0 mm | - | 651 W/m² | - |
| 1777053327 | 15° C | 52% | 1016.9 hPa | 0 mm | - | 640 W/m² | - |
| 1777053023 | 15° C | 53% | 1016.9 hPa | 0 mm | - | 628 W/m² | - |
| 1777052720 | 15° C | 54% | 1016.8 hPa | 0 mm | - | 616 W/m² | - |
* Rain latest hour (hover to see other rain measurements)
** Current wind speed in m/s (hover to see current wind gust speed)